Regional Weather Roundup
Issued by NWS Burlington, VT

Home | Current Version | Previous Version | Text Only | Print | Product List | Glossary On
Versions: 1 2 3 4 5 6 7 8 9 10 11 12 13 14 15 16 17 18 19 20 21 22 23 24 25 26 27 28 29 30 31 32 33 34 35 36 37 38 39 40 41 42 43 44 45 46 47 48 49 50
000
ASUS41 KBTV 080530
RWRBTV
VERMONT REGIONAL WEATHER ROUNDUP
NATIONAL WEATHER SERVICE BURLINGTON VT
100 AM EDT WED JUL 08 2015

NOTE: "FAIR" INDICATES FEW OR NO CLOUDS BELOW 12,000 FEET WITH NO
SIGNIFICANT WEATHER AND/OR OBSTRUCTIONS TO VISIBILITY.

* THESE REPORTS ARE NOT UNDER NWS QUALITY CONTROL AND/OR DO NOT
  REPORT WEATHER SUCH AS PRECIPITATION AND FOG.

VTZ001>019-080600-
_____VERMONT_____


CITY           SKY/WX    TMP DP  RH WIND       PRES   REMARKS
BURLINGTON     MOCLDY    76  67  73 S15G24    29.81S
MONTPELIER     PTCLDY    69  66  90 S3        29.91F
MORRISVILLE    PTCLDY    72  66  81 CALM      29.85F
ST. JOHNSBURY*   N/A     73  68  84 MISG      29.84F
LYNDONVILLE*   MOCLDY    70  68  95 SE7       29.89F
MIDDLEBURY*    MOCLDY    75  69  82 S9        29.86S
RUTLAND*       PTCLDY    70  63  78 SE6       29.89S
SPRINGFIELD    MOCLDY    68  67  96 CALM      29.90F
HIGHGATE*      LGT RAIN  73  70  91 SW5       29.79S
NEWPORT*       MOCLDY    69  67  92 SW7       29.84F
BENNINGTON     CLEAR     68  66  93 CALM      29.92S
MT. MANSFIELD*   N/A     63 N/A N/A W20G32      N/A

_____LAKE CHAMPLAIN_____


CITY           SKY/WX    TMP DP  RH WIND       PRES   REMARKS

$$

NYZ007-026>031-035-052-083-080600-
_____NORTHERN NEW YORK_____


CITY           SKY/WX    TMP DP  RH WIND       PRES   REMARKS
PLATTSBURGH    MOCLDY    72  69  90 CALM      29.79F
SARANAC LAKE   CLOUDY    69  67  93 SW10      29.87S
MASSENA        RAIN      66  64  93 NW14      29.83R
OGDENSBURG*    RAIN      64  63  94 NW12G18   29.86R
POTSDAM*       RAIN      66  66 100 NW10G20   29.84R
WATERTOWN      CLOUDY    71  67  87 SW12G21   29.85S
FT DRUM        CLOUDY    72  68  88 W10       29.85S
ALBANY         PTCLDY    74  70  87 S9        29.89F
GLENS FALLS    PTCLDY    72  69  90 S7        29.87F

$$
NHZ002-005-011-080600-
_____NEW HAMPSHIRE_____


CITY           SKY/WX    TMP DP  RH WIND       PRES   REMARKS
LEBANON        PTCLDY    69  67  93 S6        29.88F
KEENE          CLOUDY    72  66  83 CALM      29.92F
MT WASHINGTON  FOG       55  55 100 W46G54      N/A  VSB 0
PLYMOUTH       FAIR      68  68 100 CALM      29.88F FOG
WHITEFIELD     PTCLDY    67  65  93 S3        29.88F

$$

_____REGIONAL QUEBEC LOCATIONS_____


CITY           SKY/WX    TMP DP  RH WIND       PRES   REMARKS
MONTREAL       LGT RAIN  72  70  94 SW20G28   29.75S FOG
QUEBEC CITY    LGT RAIN  72  70  94 SW6       29.70F
SHERBROOKE     MOCLDY    72  66  83 S6        29.80F

_____REGIONAL ONTARIO LOCATIONS_____


CITY           SKY/WX    TMP DP  RH WIND       PRES   REMARKS
OTTAWA         MOCLDY    61  57  88 NW21      29.88R

______KEY______
VSB  - VISIBILITY IN MILES
WCI  - WIND CHILL INDEX
HX   - HEAT INDEX
$$
NNNN



USA.gov is the U.S. government's official web portal to all federal, state and local government web resources and services.